Pasco, WA
on Wednesday, November 14, 2012

Wednesday
Previous Day Next Day
Daily Summary
 ActualAverageRecord
Temperature
Mean Temperature °F 42°F  
Max Temperature 47°F 51°F 68°F (2001)
Min Temperature 38°F 33°F 19°F (2007)
Degree Days
Heating Degree Days 22 23  
Month to date heating degree days 279 292  
Since 1 July heating degree days 723 810  
Cooling Degree Days 0 0  
Month to date cooling degree days 0 0  
Year to date cooling degree days 788 710  
Moisture
Dew Point 37°F   
Average Humidity 84    
Maximum Humidity 92    
Minimum Humidity 76    
Precipitation
Precipitation 0.00 in in 0.53 in (1966)
Month to date precipitation 0.36  
Year to date precipitation 7.82  
Snow
Snow 0.00 in in in ()
Snow Depth 0.00 in   
Wind
Wind Speed 2 mph   
Max Wind Speed 15 mph   
Max Gust Speed 17 mph   
Visibility 9 miles   
Events     

Key: T is trace of precipitation, MM is missing value
Source: NWS Daily Summary
Time(PST)TemperatureDew PointHumidity Pressure Visibility Wind DirectionWind SpeedGust SpeedPrecipitationEvents Conditions
12:07 AM 39.2°F 35.6°F 87% 30.25 in 10.0 miles Calm Calm - N/A   Overcast
12:53 AM 39.0°F 35.1°F 86% 30.26 in 10.0 miles Calm Calm - N/A   Overcast
1:53 AM 39.0°F 35.1°F 86% 30.25 in 10.0 miles Calm Calm - N/A   Overcast
2:53 AM 39.0°F 36.0°F 89% 30.25 in 10.0 miles Calm Calm - N/A   Overcast
3:40 AM 39.2°F 35.6°F 87% 30.24 in 10.0 miles Calm Calm - N/A   Overcast
3:53 AM 39.0°F 36.0°F 89% 30.25 in 10.0 miles Calm Calm - N/A   Overcast
4:53 AM 39.9°F 36.0°F 86% 30.24 in 10.0 miles Calm Calm - N/A   Overcast
5:38 AM 39.2°F 37.4°F 93% 30.24 in 10.0 miles Calm Calm - N/A   Overcast
5:53 AM 39.9°F 37.0°F 89% 30.25 in 10.0 miles Calm Calm - N/A   Overcast
6:09 AM 39.2°F 37.4°F 93% 30.25 in 10.0 miles Calm Calm - N/A   Overcast
6:21 AM 39.2°F 37.4°F 93% 30.26 in 10.0 miles Calm Calm - N/A   Overcast
6:53 AM 41.0°F 37.0°F 86% 30.27 in 10.0 miles Calm Calm - N/A   Overcast
7:36 AM 41.0°F 37.4°F 87% 30.27 in 5.0 miles SSE 4.6 mph - N/A   Overcast
7:53 AM 42.1°F 37.9°F 85% 30.29 in 5.0 miles SSE 3.5 mph - N/A   Overcast
8:53 AM 43.0°F 39.9°F 89% 30.30 in 5.0 miles South 3.5 mph - N/A   Overcast
9:53 AM 44.1°F 39.9°F 85% 30.31 in 3.0 miles Calm Calm - N/A   Overcast
10:53 AM 45.0°F 41.0°F 86% 30.31 in 3.0 miles Calm Calm - N/A   Overcast
11:00 AM 44.6°F 39.2°F 81% 30.30 in 8.0 miles WNW 3.5 mph - N/A   Overcast
11:53 AM 46.0°F 39.9°F 79% 30.31 in 10.0 miles WNW 5.8 mph - N/A   Overcast
12:53 PM 46.0°F 39.9°F 79% 30.32 in 6.0 miles NNW 4.6 mph - N/A   Haze
1:48 PM 46.4°F 39.2°F 76% 30.31 in 10.0 miles North 5.8 mph - N/A   Overcast
1:53 PM 46.0°F 39.9°F 79% 30.32 in 10.0 miles North 6.9 mph - N/A   Overcast
2:53 PM 45.0°F 39.9°F 82% 30.32 in 10.0 miles North 6.9 mph - N/A   Overcast
3:11 PM 44.6°F 39.2°F 81% 30.32 in 10.0 miles NNW 4.6 mph - N/A   Overcast
3:53 PM 45.0°F 39.0°F 80% 30.33 in 10.0 miles North 3.5 mph - N/A   Overcast
4:53 PM 44.1°F 39.0°F 82% 30.34 in 10.0 miles North 5.8 mph - N/A   Overcast
5:53 PM 43.0°F 37.9°F 82% 30.35 in 10.0 miles North 9.2 mph - N/A   Overcast
6:53 PM 41.0°F 37.0°F 86% 30.37 in 10.0 miles North 11.5 mph - N/A   Overcast
7:53 PM 41.0°F 36.0°F 82% 30.38 in 10.0 miles NNE 10.4 mph - N/A   Overcast
8:53 PM 39.9°F 36.0°F 86% 30.38 in 10.0 miles NNE 10.4 mph - N/A   Overcast
9:53 PM 39.9°F 35.1°F 83% 30.39 in 10.0 miles NNE 8.1 mph - N/A   Overcast
10:53 PM 39.0°F 35.1°F 86% 30.39 in 10.0 miles NNE 8.1 mph - N/A   Overcast
11:19 PM 39.2°F 35.6°F 87% 30.38 in 10.0 miles North 6.9 mph - N/A   Overcast
11:53 PM 37.9°F 35.1°F 89% 30.39 in 10.0 miles North 10.4 mph - N/A   Overcast
Moon Phase
Nov. 14 Nov. 20 Nov. 28 Dec. 06 Dec. 13
Sunrise:06:57 AM (PST) Moon Rise:07:55 AM (PST)11/14
Sunset:04:24 PM (PST) Moon Set:05:14 PM (PST)11/14

Copyright © 2014 The Weather Underground, Inc.